TimePDT,TemperatureF,Dew PointF,Humidity,Sea Level PressureIn,VisibilityMPH,Wind Direction,Wind SpeedMPH,Gust SpeedMPH,PrecipitationIn,Events,Conditions,WindDirDegrees,DateUTC
12:15 AM,50.0,33.8,54,30.08,10.0,NNE,8.1,-,N/A,,Scattered Clouds,20,2013-04-11 07:15:00
12:35 AM,53.6,35.6,51,30.08,10.0,North,6.9,-,N/A,,Overcast,10,2013-04-11 07:35:00
12:55 AM,50.0,39.2,66,30.09,10.0,North,21.9,25.3,N/A,Rain,Light Rain,360,2013-04-11 07:55:00
1:15 AM,46.4,41.0,81,30.10,5.0,North,19.6,-,0.01,Rain,Rain,360,2013-04-11 08:15:00
1:35 AM,46.4,41.0,81,30.10,8.0,North,20.7,27.6,0.02,Rain,Light Rain,10,2013-04-11 08:35:00
1:55 AM,44.6,41.0,87,30.10,8.0,North,18.4,-,0.03,Rain,Light Rain,360,2013-04-11 08:55:00
2:15 AM,44.6,41.0,87,30.09,8.0,North,23.0,28.8,0.01,Rain,Light Rain,360,2013-04-11 09:15:00
2:35 AM,44.6,39.2,81,30.09,10.0,North,17.3,26.5,0.05,Rain,Light Rain,10,2013-04-11 09:35:00
2:55 AM,44.6,39.2,81,30.10,9.0,North,15.0,-,0.06,Rain,Light Rain,10,2013-04-11 09:55:00
3:15 AM,42.8,39.2,87,30.11,4.0,NW,8.1,-,0.03,Rain,Light Rain,310,2013-04-11 10:15:00
3:35 AM,42.8,39.2,87,30.11,6.0,NNW,10.4,-,0.04,Rain,Light Rain,340,2013-04-11 10:35:00
3:55 AM,41.0,39.2,93,30.10,7.0,NNW,11.5,18.4,0.05,Rain,Light Rain,340,2013-04-11 10:55:00
4:15 AM,41.0,37.4,87,30.11,3.0,NNW,12.7,-,0.04,Rain,Rain,340,2013-04-11 11:15:00
4:35 AM,41.0,37.4,87,30.11,4.0,NNW,13.8,-,0.07,Rain,Rain,340,2013-04-11 11:35:00
4:55 AM,41.0,37.4,87,30.11,10.0,NNW,6.9,-,0.08,,Overcast,330,2013-04-11 11:55:00
5:15 AM,41.0,37.4,87,30.11,9.0,NNW,11.5,-,N/A,Rain,Light Rain,340,2013-04-11 12:15:00
5:35 AM,41.0,37.4,87,30.12,5.0,North,12.7,-,N/A,Rain,Light Rain,360,2013-04-11 12:35:00
5:55 AM,41.0,37.4,87,30.12,10.0,NNW,12.7,17.3,N/A,Rain,Light Rain,340,2013-04-11 12:55:00
6:15 AM,39.2,35.6,87,30.12,10.0,North,18.4,24.2,N/A,,Overcast,350,2013-04-11 13:15:00
6:35 AM,39.2,35.6,87,30.13,10.0,North,15.0,23.0,N/A,,Mostly Cloudy,350,2013-04-11 13:35:00
6:55 AM,39.2,33.8,81,30.13,10.0,North,16.1,-,N/A,,Partly Cloudy,350,2013-04-11 13:55:00
7:15 AM,37.4,33.8,87,30.13,10.0,NNW,8.1,-,N/A,,Clear,330,2013-04-11 14:15:00
7:35 AM,39.2,35.6,87,30.13,10.0,North,11.5,-,N/A,,Clear,350,2013-04-11 14:35:00
7:55 AM,39.2,33.8,81,30.14,10.0,North,12.7,-,N/A,,Clear,350,2013-04-11 14:55:00
8:15 AM,39.2,33.8,81,30.14,10.0,NNW,11.5,17.3,N/A,,Clear,340,2013-04-11 15:15:00
8:35 AM,41.0,32.0,70,30.15,10.0,North,13.8,-,N/A,,Clear,350,2013-04-11 15:35:00
8:55 AM,41.0,32.0,70,30.15,10.0,North,12.7,-,N/A,,Clear,350,2013-04-11 15:55:00
9:15 AM,41.0,32.0,70,30.14,10.0,North,6.9,-,N/A,,Clear,350,2013-04-11 16:15:00
9:35 AM,42.8,30.2,61,30.13,10.0,NNE,4.6,-,N/A,,Clear,30,2013-04-11 16:35:00
9:55 AM,44.6,28.4,53,30.13,10.0,Calm,Calm,-,N/A,,Clear,0,2013-04-11 16:55:00
10:15 AM,44.6,28.4,53,30.14,10.0,West,3.5,-,N/A,,Clear,280,2013-04-11 17:15:00
10:35 AM,44.6,30.2,57,30.14,10.0,SSE,3.5,-,N/A,,Clear,150,2013-04-11 17:35:00
10:55 AM,46.4,32.0,57,30.14,10.0,ESE,5.8,-,N/A,,Clear,120,2013-04-11 17:55:00
11:15 AM,46.4,32.0,57,30.13,10.0,SE,6.9,-,N/A,,Clear,140,2013-04-11 18:15:00
11:35 AM,48.2,32.0,54,30.13,10.0,South,3.5,-,N/A,,Clear,180,2013-04-11 18:35:00
11:55 AM,48.2,32.0,54,30.12,10.0,ESE,5.8,-,N/A,,Clear,120,2013-04-11 18:55:00
12:15 PM,48.2,30.2,50,30.11,10.0,ESE,5.8,-,N/A,,Clear,120,2013-04-11 19:15:00
12:35 PM,50.0,30.2,47,30.09,10.0,ESE,9.2,-,N/A,,Clear,120,2013-04-11 19:35:00
12:55 PM,50.0,28.4,43,30.08,10.0,ENE,6.9,-,N/A,,Clear,60,2013-04-11 19:55:00
1:15 PM,50.0,30.2,47,30.08,10.0,East,5.8,-,N/A,,Clear,100,2013-04-11 20:15:00
1:35 PM,51.8,28.4,41,30.08,10.0,ESE,8.1,-,N/A,,Clear,110,2013-04-11 20:35:00
1:55 PM,53.6,26.6,35,30.07,10.0,SE,6.9,-,N/A,,Clear,130,2013-04-11 20:55:00
2:15 PM,53.6,26.6,35,30.05,10.0,NE,4.6,-,N/A,,Clear,50,2013-04-11 21:15:00
2:35 PM,53.6,24.8,33,30.05,10.0,ENE,3.5,-,N/A,,Clear,60,2013-04-11 21:35:00
2:55 PM,55.4,23.0,29,30.05,10.0,North,3.5,-,N/A,,Clear,360,2013-04-11 21:55:00
3:15 PM,55.4,24.8,31,30.04,10.0,Calm,Calm,-,N/A,,Clear,0,2013-04-11 22:15:00
3:35 PM,57.2,23.0,27,30.03,10.0,ESE,4.6,-,N/A,,Clear,120,2013-04-11 22:35:00
3:55 PM,57.2,23.0,27,30.02,10.0,East,8.1,-,N/A,,Clear,90,2013-04-11 22:55:00
4:15 PM,57.2,21.2,25,30.01,10.0,ESE,4.6,-,N/A,,Clear,120,2013-04-11 23:15:00
4:35 PM,57.2,19.4,23,30.01,10.0,East,8.1,-,N/A,,Clear,100,2013-04-11 23:35:00
4:55 PM,57.2,17.6,21,30.00,10.0,East,9.2,-,N/A,,Clear,100,2013-04-11 23:55:00
5:15 PM,57.2,15.8,20,30.00,10.0,East,11.5,-,N/A,,Clear,100,2013-04-12 00:15:00
5:35 PM,57.2,17.6,21,29.99,10.0,East,13.8,17.3,N/A,,Clear,90,2013-04-12 00:35:00
5:55 PM,57.2,19.4,23,29.99,10.0,East,13.8,19.6,N/A,,Clear,80,2013-04-12 00:55:00
6:15 PM,55.4,21.2,26,30.01,10.0,ENE,11.5,-,N/A,,Clear,70,2013-04-12 01:15:00
6:35 PM,55.4,23.0,29,30.01,10.0,ENE,12.7,-,N/A,,Clear,70,2013-04-12 01:35:00
6:55 PM,53.6,23.0,30,30.01,10.0,ENE,11.5,-,N/A,,Clear,70,2013-04-12 01:55:00
7:15 PM,53.6,24.8,33,30.01,10.0,ENE,9.2,-,N/A,,Clear,60,2013-04-12 02:15:00
7:35 PM,50.0,24.8,37,30.00,10.0,ENE,8.1,-,N/A,,Clear,70,2013-04-12 02:35:00
7:55 PM,50.0,23.0,35,30.00,10.0,ENE,5.8,-,N/A,,Clear,70,2013-04-12 02:55:00
8:15 PM,50.0,23.0,35,30.01,10.0,NNE,6.9,-,N/A,,Clear,30,2013-04-12 03:15:00
8:35 PM,50.0,24.8,37,30.03,10.0,NNE,9.2,-,N/A,,Clear,20,2013-04-12 03:35:00
8:55 PM,48.2,26.6,43,30.03,10.0,Calm,Calm,-,N/A,,Clear,0,2013-04-12 03:55:00
9:15 PM,46.4,26.6,46,30.04,10.0,WNW,5.8,-,N/A,,Clear,300,2013-04-12 04:15:00
9:35 PM,44.6,26.6,49,30.04,10.0,Calm,Calm,-,N/A,,Clear,0,2013-04-12 04:35:00
9:55 PM,44.6,26.6,49,30.05,10.0,Calm,Calm,-,N/A,,Clear,0,2013-04-12 04:55:00
10:15 PM,42.8,26.6,53,30.05,10.0,North,4.6,-,N/A,,Clear,350,2013-04-12 05:15:00
10:35 PM,39.2,26.6,61,30.05,10.0,North,3.5,-,N/A,,Clear,360,2013-04-12 05:35:00
10:55 PM,41.0,24.8,53,30.04,10.0,Calm,Calm,-,N/A,,Clear,0,2013-04-12 05:55:00
11:15 PM,42.8,24.8,49,30.03,10.0,North,4.6,-,N/A,,Clear,10,2013-04-12 06:15:00
11:35 PM,37.4,26.6,65,30.03,10.0,North,6.9,-,N/A,,Clear,350,2013-04-12 06:35:00
11:55 PM,37.4,26.6,65,30.03,10.0,North,5.8,-,N/A,,Clear,10,2013-04-12 06:55:00